Danbury, CT

10:09 AM EDT on March 25, 2017 (GMT -0400)
Danbury Municipal

Weather History for KDXR - July, 2013

Change the Weather History Date:

Friday, July 26, 2013

  Actual Average Record
Temperature  
Mean Temperature 70 °F -  
Max Temperature 79 °F 81 °F 96 °F (1966)
Min Temperature 62 °F 59 °F 47 °F (1976)
Cooling Degree Days 5    
Growing Degree Days 20 (Base 50)    
Moisture  
Dew Point 59 °F    
Average Humidity 73    
Maximum Humidity 90    
Minimum Humidity 52    
Precipitation  
Precipitation 0.02 in - - ()
Sea Level Pressure  
Sea Level Pressure 30.03 in    
Wind  
Wind Speed 5 mph (North)    
Max Wind Speed 9 mph    
Max Gust Speed -    
Visibility 10 miles    
Events Rain    
Averages and records for this station are not official NWS values.
T = Trace of Precipitation, MM = Missing Value Source: NWS Daily Summary

Daily Weather History Graph

Daily Weather History Graph

Search for Another Location

Airport or City:

Trip Planner

Search our weather history database for the weather conditions in past years. The results will help you decide how hot, cold, wet, or windy it might be!

Date:

Astronomy

Jul. 26, 2013 Rise Set
Actual Time 5:43 AM EDT 8:16 PM EDT
Civil Twilight 5:11 AM EDT 8:48 PM EDT
Nautical Twilight 4:32 AM EDT 9:27 PM EDT
Astronomical Twilight 3:47 AM EDT 10:12 PM EDT
Moon 10:25 PM EDT (7/26) 10:20 AM EDT (7/26)
Length of Visible Light 15h 36m
Length of Day
14h 33m
Waning Gibbous, 80% of the Moon is Illuminated
Jul 26
Waning Gibbous
Jul 29
Last Quarter
Aug 6
New
Aug 14
First Quarter
Aug 20
Full

Hourly Weather History & Observations

Time (EDT) Temp. Dew Point Humidity Pressure Visibility Wind Dir Wind Speed Gust Speed Precip Events Conditions
12:53 AM 62.1 °F 57.0 °F 84% 30.05 in 10.0 mi NE 5.8 mph - 0.01 in Rain Light Rain
1:53 AM 62.1 °F 57.0 °F 84% 30.04 in 10.0 mi NE 4.6 mph - 0.00 in Rain Light Rain
2:53 AM 62.1 °F 57.0 °F 84% 30.04 in 10.0 mi NE 3.5 mph - 0.01 in   Overcast
3:53 AM 63.0 °F 57.0 °F 81% 30.02 in 10.0 mi NNE 8.1 mph - N/A   Overcast
4:53 AM 64.0 °F 57.0 °F 78% 30.01 in 10.0 mi Variable 5.8 mph - N/A   Overcast
5:53 AM 64.0 °F 55.9 °F 75% 30.04 in 10.0 mi North 5.8 mph - N/A   Overcast
6:01 AM 64.4 °F 55.4 °F 73% 30.04 in 10.0 mi NNE 5.8 mph - N/A   Overcast
6:53 AM 64.9 °F 55.9 °F 73% 30.03 in 10.0 mi North 8.1 mph - N/A   Overcast
7:53 AM 64.9 °F 57.0 °F 75% 30.03 in 10.0 mi North 5.8 mph - N/A   Overcast
8:53 AM 66.0 °F 57.0 °F 73% 30.03 in 10.0 mi North 4.6 mph - N/A   Overcast
9:53 AM 68.0 °F 57.0 °F 68% 30.04 in 10.0 mi NNW 5.8 mph - N/A   Overcast
10:53 AM 69.1 °F 57.0 °F 65% 30.04 in 10.0 mi North 6.9 mph - 0.00 in   Overcast
11:53 AM 70.0 °F 57.9 °F 65% 30.04 in 10.0 mi NNW 9.2 mph - N/A   Overcast
12:53 PM 72.0 °F 59.0 °F 64% 30.03 in 10.0 mi WNW 4.6 mph - N/A   Scattered Clouds
1:53 PM 72.0 °F 59.0 °F 64% 30.03 in 10.0 mi WNW 8.1 mph - N/A   Mostly Cloudy
2:53 PM 72.0 °F 59.0 °F 64% 30.03 in 10.0 mi NW 8.1 mph - N/A   Partly Cloudy
3:53 PM 73.0 °F 61.0 °F 66% 30.02 in 10.0 mi Calm Calm - N/A   Clear
4:53 PM 78.1 °F 61.0 °F 56% 30.01 in 10.0 mi NNW 5.8 mph - N/A   Clear
5:53 PM 78.1 °F 59.0 °F 52% 30.00 in 10.0 mi Variable 4.6 mph - N/A   Clear
6:53 PM 77.0 °F 60.1 °F 56% 30.01 in 10.0 mi Variable 3.5 mph - N/A   Clear
7:53 PM 72.0 °F 63.0 °F 73% 30.02 in 10.0 mi SE 3.5 mph - N/A   Clear
8:53 PM 69.1 °F 62.1 °F 78% 30.03 in 10.0 mi Calm Calm - N/A   Partly Cloudy
9:53 PM 66.9 °F 62.1 °F 84% 30.05 in 10.0 mi Calm Calm - N/A   Clear
10:53 PM 64.0 °F 61.0 °F 90% 30.05 in 10.0 mi Calm Calm - N/A   Clear
11:53 PM 63.0 °F 60.1 °F 90% 30.06 in 9.0 mi Calm Calm - N/A   Clear